This is the latest recevied weather packets stored in our database for station/object KW4UJ. If no packets are shown the sender has not sent any weather packets the latest 10 day(s).
| Time | Temp. | Humidity | Pressure | Rain* | Wind** | Luminosity | Snow |
|---|---|---|---|---|---|---|---|
| 1788121915 | 30.56° C | 66% | 1018.6 hPa | 0 mm | - | 204 W/m² | - |
| 1788121614 | 31.11° C | 65% | 1018.7 hPa | 0 mm | - | 371 W/m² | - |
| 1788121310 | 30.56° C | 64% | 1018.7 hPa | 0 mm | - | 384 W/m² | - |
| 1788121009 | 30.56° C | 64% | 1018.7 hPa | 0 mm | - | 380 W/m² | - |
| 1788120705 | 30.56° C | 63% | 1018.8 hPa | 0 mm | - | 159 W/m² | - |
| 1788120400 | 30.56° C | 64% | 1018.8 hPa | 0 mm | - | 191 W/m² | - |
| 1788120104 | 30° C | 66% | 1018.8 hPa | 0 mm | - | 434 W/m² | - |
| 1788119795 | 30° C | 65% | 1018.8 hPa | 0 mm | - | 135 W/m² | - |
| 1788119493 | 30.56° C | 64% | 1018.9 hPa | 0 mm | - | 130 W/m² | - |
| 1788119192 | 30.56° C | 62% | 1018.8 hPa | 0 mm | - | 507 W/m² | - |
| 1788118892 | 30.56° C | 63% | 1018.8 hPa | 0 mm | - | 492 W/m² | - |
| 1788118587 | 30.56° C | 63% | 1018.8 hPa | 0 mm | - | 414 W/m² | - |
| 1788118281 | 30.56° C | 61% | 1018.8 hPa | 0 mm | - | 493 W/m² | - |
| 1788117977 | 30.56° C | 62% | 1018.8 hPa | 0 mm | - | 522 W/m² | - |
| 1788117677 | 30.56° C | 62% | 1019 hPa | 0 mm | - | 525 W/m² | - |
| 1788117373 | 31.11° C | 61% | 1019 hPa | 0 mm | - | 530 W/m² | - |
| 1788117068 | 31.11° C | 60% | 1019.2 hPa | 0 mm | - | 536 W/m² | - |
| 1788116763 | 31.11° C | 61% | 1019.3 hPa | 0 mm | - | 542 W/m² | - |
| 1788116459 | 30.56° C | 62% | 1019.4 hPa | 0 mm | - | 552 W/m² | - |
| 1788116157 | 30.56° C | 62% | 1019.7 hPa | 0 mm | - | 564 W/m² | - |
| 1788115853 | 30.56° C | 63% | 1019.9 hPa | 0 mm | - | 577 W/m² | - |
| 1788115552 | 31.11° C | 63% | 1019.9 hPa | 0 mm | - | 566 W/m² | - |
| 1788115246 | 30.56° C | 62% | 1019.8 hPa | 0 mm | - | 569 W/m² | - |
| 1788114941 | 30.56° C | 64% | 1020 hPa | 0 mm | - | 578 W/m² | - |
| 1788114637 | 31.11° C | 63% | 1020.1 hPa | 0 mm | - | 427 W/m² | - |
* Rain latest hour (hover to see other rain measurements)
** Current wind speed in m/s (hover to see current wind gust speed)